Regional Weather Roundup
Issued by NWS Raleigh/Durham, NC

Current Version | Previous Version | Graphics & Text | Print | Product List | Glossary On
Versions: 1 2 3 4 5 6 7 8 9 10 11 12 13 14 15 16 17 18 19 20 21 22 23 24 25 26 27 28 29 30 31 32 33 34 35 36 37 38 39 40 41 42 43 44 45 46 47 48 49 50
000
ASUS42 KRAH 100010
RWRRAH
NORTH CAROLINA WEATHER ROUNDUP
NATIONAL WEATHER SERVICE RALEIGH NC
700 PM EST FRI DEC 09 2016

NOTE: "FAIR" INDICATES FEW OR NO CLOUDS BELOW 12,000 FEET WITH NO
SIGNIFICANT WEATHER AND/OR OBSTRUCTIONS TO VISIBILITY.

NCZ001-053-055-056-065-067-100100-
WESTERN NORTH CAROLINA

CITY           SKY/WX    TMP DP  RH WIND       PRES   REMARKS
ASHEVILLE      CLEAR     27  12  53 N13       30.40R WCI  16
JEFFERSON      CLEAR     20  10  64 NW5       30.32S WCI  13
MORGANTON      CLEAR     31  13  47 CALM      30.47R
HICKORY        CLEAR     30  11  45 N5        30.42R WCI  25
RUTHERFORDTON  CLEAR     33  10  37 N5        30.43R WCI  29
MOUNT AIRY     CLEAR     30  15  53 NW3       30.45S
BOONE          CLEAR     21  11  65 W7        30.34R WCI  12
$$

NCZ021-022-025-041-071-084-088-100100-
CENTRAL NORTH CAROLINA

CITY           SKY/WX    TMP DP  RH WIND       PRES   REMARKS
CHARLOTTE      CLEAR     35  12  38 N8        30.43R WCI  29
GREENSBORO     CLEAR     32  13  45 N3        30.41S
WINSTON-SALEM  CLEAR     31  12  45 N9        30.43S WCI  23
RALEIGH-DURHAM CLEAR     34  13  41 CALM      30.44R
FORT BRAGG     CLEAR     34  15  45 CALM      30.43R
FAYETTEVILLE   CLEAR     34  18  52 N5        30.43R WCI  30
BURLINGTON     CLEAR     32  13  45 NW8       30.42S WCI  25
LAURINBURG     CLEAR     32  22  66 CALM      30.44R
$$

NCZ011-015-027-028-043-044-047-080-103-100100-
NORTHEASTERN NORTH CAROLINA

CITY           SKY/WX    TMP DP  RH WIND       PRES   REMARKS
ROCKY MT-WILSO CLEAR     30  20  66 NW3       30.44R
GREENVILLE     CLEAR     36  19  51 CALM      30.43R
WASHINGTON     CLEAR     34  18  51 NW3       30.43R
ELIZABETH CITY CLEAR     33  17  51 NW8       30.41R WCI  26
MANTEO         CLEAR     38  18  45 N10G16    30.40R WCI  31
CAPE HATTERAS  CLEAR     39  21  48 VRB5      30.40R
$$

NCZ078-087-090-091-093-098-101-100100-
SOUTHEASTERN NORTH CAROLINA

CITY           SKY/WX    TMP DP  RH WIND       PRES   REMARKS
LUMBERTON      CLEAR     36  23  59 CALM      30.44R
GOLDSBORO      CLEAR     35  15  43 NW5       30.42R WCI  31
KINSTON        CLEAR     32  19  59 NW3       30.44R
KENANSVILLE    PTCLDY    32  21  64 N3        30.43R
NEW BERN       CLEAR     34  20  56 NW3       30.43R
CHERRY POINT   CLEAR     37  20  50 NW7       30.43R WCI  32
BEAUFORT       CLEAR     35  21  56 N6        30.42R WCI  30
JACKSONVILLE   PTCLDY    36  20  52 N6        30.42R WCI  31
WILMINGTON     CLEAR     36  23  59 N5        30.43R WCI  32
$$




USA.gov is the U.S. government's official web portal to all federal, state and local government web resources and services.